Location: Unspecified
(44.4377°N, 88.0525°W)
Time: 05:06:35
(UTC-05:00)

CZ-3 Stage 3 - Visible Passes

Search period start: 04 July 2015 00:00
Search period end: 14 July 2015 00:00
Orbit: 427 x 34799 km, 31.0° (Epoch: 01 July)

Date Brightness Start Highest point End Pass type
(mag) Time Alt. Az. Time Alt. Az. Time Alt. Az.
06 Jul 6.9 01:41:52 10° ESE 01:52:47 14° E 10:19:29 10° ESE visible
09 Jul 6.9 01:34:40 10° SE 01:46:38 15° ESE 10:14:38 10° ESE visible
12 Jul 6.8 01:27:49 10° SE 01:40:31 17° ESE 10:09:45 10° ESE visible
